Waarnemingen

Advertentie
Mijn weer
Reus, Spanje (8175): temperatuur & dauwpunt: 10.07.2019 00:00:00 - 16.07.2019 00:00:00 (CEST)Reus, Spanje (8175): windsnelheid: 10.07.2019 00:00:00 - 16.07.2019 00:00:00 (CEST)Reus, Spanje (8175): windrichting: 10.07.2019 00:00:00 - 16.07.2019 00:00:00 (CEST)Reus, Spanje (8175): luchtdruk: 10.07.2019 00:00:00 - 16.07.2019 00:00:00 (CEST)Reus, Spanje (8175): zicht: 10.07.2019 00:00:00 - 16.07.2019 00:00:00 (CEST)
Datum & Tijd tt [°C] td [°C] ff [km/u] ff [kn] dd ppp [hPa] vv [km]
16.07.2019 00:00:00 23,3 19,7 8 4 N 1014,9 30
15.07.2019 23:00:00 23,6 19,8 8 4 NO 1014,5 30
15.07.2019 22:00:00 24,2 20,3 11 6 O 1013,5 30
15.07.2019 21:00:00 25,5 20,8 13 7 O 1012,5 30
15.07.2019 20:00:00 27,3 19,3 11 6 ZZO 1011,6 30
15.07.2019 19:00:00 28,3 17,8 13 7 Z 1010,7 30
15.07.2019 18:00:00 29,5 17,9 21 11 ZO 1010,0 30
15.07.2019 17:00:00 30,5 16,6 21 11 ZO 1009,7 30
15.07.2019 16:00:00 31,0 16,2 21 11 ZO 1009,5 30
15.07.2019 15:00:00 32,8 18,5 22 12 Z 1009,2 30
15.07.2019 14:00:00 32,7 14,2 11 6 ZZO 1009,6 30
15.07.2019 13:00:00 31,4 15,2 15 8 ZO 1010,0 30
15.07.2019 12:00:00 30,1 14,6 13 7 ONO 1010,4 30
15.07.2019 11:00:00 28,6 13,8 18 10 NNO 1010,4 30
15.07.2019 10:00:00 27,5 14,9 4 2 NO 1010,6 30
15.07.2019 09:00:00 24,7 14,3 4 2 NNO 1010,6 30
15.07.2019 08:00:00 23,0 13,0 16 9 WNW 1010,3 30
15.07.2019 07:00:00 21,7 12,3 18 10 WNW 1010,2 30
15.07.2019 06:00:00 21,9 12,2 22 12 WNW 1010,0 30
15.07.2019 05:00:00 22,4 12,5 22 12 WNW 1010,2 30
15.07.2019 04:00:00 23,0 13,6 18 10 WNW 1010,2 30
15.07.2019 03:00:00 23,9 14,5 18 10 WNW 1010,4 30
15.07.2019 02:00:00 22,5 20,1 8 4 NW 1010,9 28
15.07.2019 01:00:00 23,5 20,0 11 6 N 1011,1 30
15.07.2019 00:00:00 24,4 21,8 5 3 OZO 1011,1 2,6
14.07.2019 23:00:00 24,5 20,8 4 2 ZZW 1011,1 30
14.07.2019 22:00:00 24,9 20,9 9 5 ZZW 1010,5 30
14.07.2019 21:00:00 26,1 20,7 13 7 ZW 1010,2 30
14.07.2019 20:00:00 28,1 19,9 13 7 ZZW 1010,0 30
14.07.2019 19:00:00 29,2 19,0 13 7 Z 1009,7 26
14.07.2019 18:00:00 30,1 18,2 11 6 ZZO 1009,8 30
14.07.2019 17:00:00 29,9 18,0 13 7 ZZO 1009,9 30
14.07.2019 16:00:00 28,9 18,0 11 6 OZO 1010,4 30
14.07.2019 15:00:00 28,8 17,2 8 4 ZZO 1011,1 30
14.07.2019 14:00:00 26,9 17,2 4 2 ZZO 1011,6 25
14.07.2019 13:00:00 27,1 14,5 16 9 ZO 1011,3 30
14.07.2019 12:00:00 28,0 18,6 16 9 ZO 1011,2 23
14.07.2019 11:00:00 27,9 20,1 18 10 ZO 1011,1 30
14.07.2019 10:00:00 28,8 19,9 5 3 NO 1010,8 30
14.07.2019 09:00:00 26,7 20,6 11 6 W 1010,3 30
14.07.2019 08:00:00 24,3 20,9 9 5 NNW 1010,8 25
14.07.2019 07:00:00 22,7 20,1 8 4 N 1010,9 30
14.07.2019 06:00:00 22,3 20,0 13 7 N 1011,0 30
14.07.2019 05:00:00 22,8 20,6 9 5 NNO 1011,4 30
14.07.2019 04:00:00 21,7 19,9 9 5 NO 1011,7 30
14.07.2019 03:00:00 22,6 20,3 4 2 N 1012,1 30
14.07.2019 02:00:00 22,9 20,3 9 5 N 1012,3 30
14.07.2019 01:00:00 23,6 20,7 9 5 N 1012,5 30
14.07.2019 00:00:00 24,1 21,4 5 3 NO 1012,8 30
13.07.2019 23:00:00 24,3 21,0 9 5 ONO 1012,9 30
13.07.2019 22:00:00 24,7 20,9 9 5 OZO 1012,9 30
13.07.2019 21:00:00 26,1 21,1 9 5 O 1013,0 30
13.07.2019 20:00:00 27,6 21,4 9 5 Z 1013,7 30
13.07.2019 19:00:00 28,1 21,8 13 7 ZZO 1013,3 21
13.07.2019 18:00:00 - - - - - - -
13.07.2019 17:00:00 29,8 20,7 18 10 ZZO 1013,7 30
13.07.2019 16:00:00 30,4 19,5 18 10 Z 1014,4 30
13.07.2019 15:00:00 29,8 18,7 21 11 ZZO 1014,6 30
13.07.2019 14:00:00 30,9 22,1 16 9 ZZO 1014,4 30
13.07.2019 13:00:00 30,6 19,6 13 7 ZO 1014,5 30
13.07.2019 12:00:00 30,1 20,8 8 4 ZO 1014,4 30
13.07.2019 11:00:00 27,9 21,1 9 5 ZZW 1015,7 25
13.07.2019 10:00:00 27,0 22,4 9 5 Z 1015,9 30
13.07.2019 09:00:00 26,2 20,6 11 6 NO 1015,4 30
13.07.2019 08:00:00 23,9 20,7 11 6 NNO 1015,1 15
13.07.2019 07:00:00 21,6 20,4 4 2 NNO 1015,3 10
13.07.2019 06:00:00 22,1 20,6 9 5 NNW 1015,3 10
13.07.2019 05:00:00 22,6 21,0 8 4 NNW 1015,4 15
13.07.2019 04:00:00 23,0 21,4 5 3 NNW 1015,3 20
13.07.2019 03:00:00 23,4 21,7 8 4 NNO 1014,7 27
13.07.2019 02:00:00 23,8 22,2 9 5 NNO 1014,6 21
13.07.2019 01:00:00 23,9 22,6 8 4 NNO 1015,2 27
13.07.2019 00:00:00 23,6 22,4 9 5 ONO 1014,9 29
12.07.2019 23:00:00 24,5 22,1 0 0 N 1014,9 30
12.07.2019 22:00:00 25,0 22,0 9 5 ZZW 1014,4 30
12.07.2019 21:00:00 26,1 22,4 9 5 ZW 1014,0 30
12.07.2019 20:00:00 27,4 22,8 11 6 ZZW 1013,9 20
12.07.2019 19:00:00 28,1 22,9 11 6 ZZW 1013,7 29
12.07.2019 18:00:00 29,0 23,0 15 8 ZZW 1014,0 30
12.07.2019 17:00:00 29,6 22,7 15 8 Z 1013,9 20
12.07.2019 16:00:00 30,2 22,4 15 8 Z 1014,5 30
12.07.2019 15:00:00 30,3 22,3 15 8 Z 1015,1 30
12.07.2019 14:00:00 30,2 21,4 15 8 Z 1015,4 20
12.07.2019 13:00:00 30,2 22,8 16 9 ZZW 1015,7 28
12.07.2019 12:00:00 29,7 23,1 15 8 ZZO 1015,7 30
12.07.2019 11:00:00 28,6 23,2 13 7 ZO 1015,7 20
12.07.2019 10:00:00 27,8 22,4 5 3 Z 1015,8 17
12.07.2019 09:00:00 26,3 22,8 4 2 ZO 1015,6 17
12.07.2019 08:00:00 24,1 21,7 5 3 NNO 1015,4 15
12.07.2019 07:00:00 23,3 21,5 9 5 NNO 1015,2 21
12.07.2019 06:00:00 23,2 21,7 8 4 NNO 1015,0 16
12.07.2019 05:00:00 23,6 22,1 8 4 NNO 1014,9 24
12.07.2019 04:00:00 22,7 21,4 9 5 N 1014,8 23
12.07.2019 03:00:00 22,8 21,1 9 5 NNO 1014,7 22
12.07.2019 02:00:00 23,4 21,6 9 5 NNO 1014,7 28
12.07.2019 01:00:00 23,7 21,5 9 5 N 1014,7 29
12.07.2019 00:00:00 24,2 21,7 4 2 NO 1014,6 30
11.07.2019 23:00:00 24,3 22,0 4 2 ZZO 1014,4 30
11.07.2019 22:00:00 25,0 22,0 8 4 ZZO 1013,7 30
11.07.2019 21:00:00 26,7 21,8 11 6 ZZW 1013,3 30
11.07.2019 20:00:00 28,1 21,8 16 9 ZZW 1012,9 30
11.07.2019 19:00:00 29,8 21,1 16 9 ZW 1012,8 25
11.07.2019 18:00:00 30,9 19,5 21 11 Z 1012,8 30
11.07.2019 17:00:00 31,5 20,1 22 12 ZZW 1012,8 30
11.07.2019 16:00:00 31,0 21,3 21 11 ZZW 1013,2 30
11.07.2019 15:00:00 30,7 19,1 22 12 ZZW 1013,4 28
11.07.2019 14:00:00 30,4 21,1 18 10 ZZW 1013,6 30
11.07.2019 13:00:00 30,5 21,9 13 7 ZZW 1013,7 30
11.07.2019 12:00:00 30,4 21,2 15 8 Z 1014,1 26
11.07.2019 11:00:00 29,1 21,5 11 6 Z 1014,0 25
11.07.2019 10:00:00 27,9 22,2 8 4 ZW 1014,2 28
11.07.2019 09:00:00 25,4 21,6 4 2 O 1014,3 24
11.07.2019 08:00:00 22,8 18,1 8 4 NNO 1014,3 30
11.07.2019 07:00:00 21,6 17,3 9 5 N 1014,2 11
11.07.2019 06:00:00 21,7 17,5 4 2 N 1014,1 30
11.07.2019 05:00:00 21,5 17,4 9 5 N 1014,3 30
11.07.2019 04:00:00 21,2 17,6 8 4 NO 1014,2 30
11.07.2019 03:00:00 22,0 17,9 11 6 NNO 1014,3 30
11.07.2019 02:00:00 22,4 19,5 9 5 NNO 1014,5 30
11.07.2019 01:00:00 22,9 20,0 8 4 NO 1014,7 28
11.07.2019 00:00:00 23,2 19,9 8 4 NO 1014,5 30
10.07.2019 23:00:00 23,4 19,9 5 3 ONO 1014,4 30
10.07.2019 22:00:00 24,3 20,4 5 3 ZZW 1013,8 30
10.07.2019 21:00:00 25,9 19,9 11 6 ZW 1013,3 30
10.07.2019 20:00:00 27,0 19,1 18 10 ZW 1013,2 30
10.07.2019 19:00:00 28,5 18,2 18 10 ZZW 1012,8 30
10.07.2019 18:00:00 29,5 17,4 22 12 ZZW 1013,0 30
10.07.2019 17:00:00 30,1 15,1 24 13 ZZW 1013,1 30
10.07.2019 16:00:00 31,0 17,2 22 12 ZZW 1013,3 30
10.07.2019 15:00:00 32,1 16,3 21 11 ZZW 1013,5 30
10.07.2019 14:00:00 32,4 16,1 22 12 Z 1013,6 30
10.07.2019 13:00:00 31,8 15,2 8 4 W 1014,2 30
10.07.2019 12:00:00 30,3 14,6 8 4 NW 1014,6 30
10.07.2019 11:00:00 28,6 14,7 8 4 OZO 1014,9 30
10.07.2019 10:00:00 26,3 14,3 8 4 OZO 1014,9 30
10.07.2019 09:00:00 23,7 14,0 4 2 NW 1014,9 30
10.07.2019 08:00:00 22,4 13,5 13 7 NNW 1014,6 30
10.07.2019 07:00:00 18,6 14,2 8 4 ZZW 1014,7 30
10.07.2019 06:00:00 20,5 12,4 8 4 NW 1014,3 30
10.07.2019 05:00:00 21,6 12,5 16 9 WNW 1013,8 30
10.07.2019 04:00:00 21,9 12,7 13 7 WNW 1013,8 30
10.07.2019 03:00:00 22,7 13,1 15 8 W 1013,8 30
10.07.2019 02:00:00 23,5 14,1 13 7 WNW 1014,0 30
10.07.2019 01:00:00 24,2 14,9 16 9 W 1013,9 30
10.07.2019 00:00:00 24,5 16,1 16 9 WZW 1013,9 30

tt = temperatuur
td = dauwpunt
ff = windsnelheid
dd = windrichting
ppp = luchtdruk
vv = zicht

Weerstations in de omgeving